{"data":{"norad_id":59067,"intl_designator":"2024-039S","name":"SITRO-AIS 26","alt_names":[],"object_type":"PAYLOAD","status":"ACTIVE","operator":null,"country":"CIS","launch_date":"2024-02-29","launch_site_code":"VOSTO","launch_vehicle":null,"mission":null,"orbit_class":"UNKNOWN","rcs_meters":null,"size_class":null,"mass_kg":null,"dimensions":null,"purposes":["tech_demo"],"wikipedia_slug":null,"has_3d_model":false,"image_url":null,"decayed_at":null,"tle_current":{"epoch":"2026-09-19T23:28:51.851424Z","epoch_age_seconds":59832,"freshness":"FRESH","line1":"1 59067U 24039S   26262.97837791  .00002517  00000+0  19618-3 0  9996","line2":"2 59067  95.3816 300.0785 0143416 357.9560   2.1061 14.93842222138861","mean_motion":14.93842222,"eccentricity":0.0143416,"inclination_deg":95.3816,"raan_deg":300.0785,"arg_perigee_deg":357.956,"mean_anomaly_deg":2.1061,"bstar":0.00019618,"rev_number":13886,"period_min":96.395722305404,"perigee_km":486.09228783391,"apogee_km":685.84512462686,"semimajor_km":6964.1057062304,"source":"CELESTRAK","updated_at":"2026-09-20T09:00:48.038204Z"}}}